Terminal Aerodrome Forecast
Issued by NWS Cleveland, OH

Home | Current Version | Previous Version | Text Only | Print | Product List | Glossary Off
Versions: 1 2 3 4 5 6 7 8 9 10 11 12 13 14

000
FTUS41 KCLE 250957 AAA
TAFTOL
TAF AMD
KTOL 250957Z 2510/2606 27006KT P6SM SCT040 BKN050
     FM251500 27010G20KT P6SM BKN035
     FM251800 27010G20KT P6SM BKN050
     FM252300 27006KT P6SM BKN060=

USA.gov is the U.S. government's official web portal to all federal, state and local government web resources and services.